{"data":{"norad_id":69739,"epoch":"2026-09-19T23:38:39.503616Z","epoch_age_seconds":66102,"freshness":"FRESH","line1":"1 69739U 26150A   26262.98517944  .00015919  00000+0  49425-3 0  9994","line2":"2 69739  97.2832 101.8703 0002200  87.7129 272.4366 15.33452062 13651","mean_motion":15.33452062,"eccentricity":0.00022,"inclination_deg":97.2832,"raan_deg":101.8703,"arg_perigee_deg":87.7129,"mean_anomaly_deg":272.4366,"bstar":0.00049425,"rev_number":1365,"period_min":93.905772191006,"perigee_km":464.01655799944,"apogee_km":467.02776803117,"semimajor_km":6843.6591630153,"source":"CELESTRAK","updated_at":"2026-09-20T09:00:44.285944Z"}}